Location: Decatur Area Astronomy Club
(40.0275°N, 88.7810°W)
Time: 21:41:51
(UTC-05:00)

Daily predictions for brighter satellites

Satellite Brightness Start Highest point End
(mag) Time Altitude Azimuth Time Altitude Azimuth Time Altitude Azimuth
Resurs 01 Rocket 3.4 19:15:32 10° E 19:17:47 14° ENE 19:20:02 10° NNE
Cosmos 1356 Rocket 4.3 19:16:06 10° NNE 19:19:57 31° ENE 19:23:47 10° SE
SKYMED 2 4.2 19:15:40 10° N 19:19:58 64° WNW 19:24:16 10° SSW
Cosmos 1606 Rocket 3.6 19:16:21 10° S 19:20:41 88° W 19:25:01 10° N
Cosmos 1953 Rocket 3.5 19:19:42 10° N 19:24:03 77° E 19:28:21 10° S
Cosmos 482 Debris 4.5 19:19:56 10° WNW 19:24:18 55° SW 19:26:56 10° SE
H-2A R/B 3.4 19:21:50 10° SE 19:25:10 32° ENE 19:28:33 10° N
Thor Agena Rocket 3.6 19:20:01 10° NNE 19:25:12 60° ESE 19:30:18 10° S
Cosmos 2184 Rocket 4.4 19:20:36 10° SSE 19:26:27 42° E 19:32:22 10° NNE
Cosmos 2058 Rocket 3.0 19:22:15 10° S 19:26:31 61° E 19:30:52 10° NNE
Cosmos 1656 Rocket 3.8 19:22:23 10° NNW 19:27:57 57° ENE 19:33:25 10° SE
FENGYUN 3A 3.6 19:24:21 10° SSE 19:29:40 78° ENE 19:35:04 10° N
BREEZE-M DEB (TANK) 3.8 19:30:01 10° NNW 19:31:01 12° N 19:31:52 10° NNE
NOAA 12 4.2 19:26:50 10° SSE 19:32:04 85° WSW 19:37:22 10° NNW
ORS 1 (USA 231) 4.3 19:34:43 10° W 19:37:41 82° S 19:39:44 18° ESE
Meteor 2-13 Rocket 4.4 19:33:04 10° S 19:39:09 82° E 19:45:15 10° N
Milstar 3 Cent rocket 3.9 19:35:58 10° SSW 19:39:16 16° S 19:42:10 10° SE
Meteor 1-22 Rocket 4.4 19:35:55 10° SSE 19:41:26 51° E 19:46:45 10° NNE
Meteor 2-5 Rocket 3.8 19:36:22 10° N 19:42:15 85° E 19:47:58 10° S
USA 234 4.3 19:37:09 10° SSE 19:43:20 45° SW 19:49:35 10° WNW
Cosmos 304 Rocket 3.7 19:38:46 10° SSW 19:43:32 83° ESE 19:48:22 10° NNE
COSMOS 2406 3.3 19:38:16 10° S 19:43:47 54° ESE 19:49:22 10° NNE
BREEZE-M (TANK) 4.1 19:27:01 10° WNW 19:44:22 89° SSW 19:48:01 14° SE
Cosmos 1707 3.2 19:41:14 10° NNW 19:45:09 66° W 19:49:02 10° S
Cosmos 990 Rocket 4.4 19:40:13 10° NNW 19:45:20 67° WSW 19:50:25 10° S
Cosmos 1766 3.5 19:41:53 10° SSE 19:45:38 45° E 19:49:23 10° NNE
ISS -2.4 19:43:49 10° S 19:46:22 21° SE 19:47:03 20° ESE
Cosmos 1544 3.4 19:45:30 10° SSE 19:48:51 39° E 19:52:16 10° NNE
SL-08 ROCKET BODY 4.4 19:43:21 10° S 19:49:13 85° W 19:55:13 10° N
Cosmos 1378 3.8 19:48:58 10° NNW 19:52:41 57° W 19:56:23 10° S
Cosmos 1125 Rocket 3.9 19:48:04 10° N 19:53:07 42° ENE 19:57:04 16° SE
FengYun 1-2 T 4.2 19:49:45 10° SSE 19:55:22 81° ENE 20:00:57 10° NNW
BREEZE-M DEB (TANK) 3.9 19:40:33 10° SW 19:55:44 71° SSE 19:59:22 17° ENE
Cosmos 372 Rocket 4.5 19:52:36 10° N 19:57:33 40° ENE 20:00:50 19° SE
In-Cosmos 22 4.3 19:52:24 10° N 19:58:02 59° ENE 20:03:43 10° SSE
Cosmos 1674 4.4 19:56:18 10° NNE 19:58:04 16° ENE 19:58:04 16° ENE
Cosmos 1758 4.3 19:59:36 25° ESE 20:00:06 26° E 20:03:28 10° NNE
Envisat 3.7 19:58:00 20° ESE 20:00:42 32° ENE 20:05:12 10° N
Geosat 4.3 19:55:51 10° SSE 20:00:51 69° WSW 20:05:53 10° NNW
ALOS 3.4 19:57:33 10° S 20:02:01 45° W 20:06:31 10° NNW
ATLAS CENTAUR R/B 3.4 19:52:11 10° NW 20:06:05 82° SW 20:09:50 18° SE
Cosmos 1939 Rocket 4.2 20:14:51 22° NE 20:14:51 22° NE 20:17:15 10° NNE
FREGAT/IRIS 4.4 20:11:29 10° SSW 20:14:16 33° W 20:17:03 10° NNW
ATLAS 2AS CENTAUR R/B 4.1 20:09:30 10° NNW 20:16:15 28° NE 20:19:38 21° ENE
Cosmos 1805 3.1 20:15:08 10° S 20:19:00 67° E 20:22:53 10° NNE
CZ-2D R/B 3.1 20:23:20 26° SSE 20:25:23 90° N 20:29:13 10° NNW
Cosmos 1900 4.3 20:20:36 10° SSW 20:25:36 62° ESE 20:30:42 10° NE
SL-27 R/B 3.9 20:22:13 10° S 20:30:14 - NNE 20:23:47 24° S
NOSS 3-1 (A) 4.2 20:18:20 10° NW 20:26:05 79° WSW 20:33:24 15° SSE
Resurs 1-3 3.5 20:28:08 35° SSE 20:29:53 73° ENE 20:34:17 10° N
Cosmos 546 4.5 20:27:30 10° NW 20:31:26 87° NE 20:31:53 69° ESE
Cosmos 2154 Rocket 3.9 20:25:24 10° S 20:31:36 76° E 20:37:51 10° N
Cosmos 540 Rocket 3.9 20:30:12 10° SSW 20:35:14 62° WNW 20:40:19 10° NNE
Cosmos 2341 Rocket 3.9 20:37:37 10° S 20:43:44 66° E 20:49:56 10° NNE
Cosmos 1953 2.9 20:53:14 50° N 20:53:14 50° N 20:56:18 10° N
Resurs 01 Rocket 2.2 20:51:54 31° SSW 20:53:46 56° W 20:58:08 10° NNW
FALCON 9 R/B 2.6 20:51:20 10° WSW 20:54:49 47° S 20:55:16 46° SSE
Cosmos 1697 Rocket 4.0 20:50:16 10° N 20:54:09 26° NE 20:54:09 26° NE
Cosmos 1656 4.4 20:50:51 10° N 20:55:33 37° NE 20:55:33 37° NE
Cosmos 1980 Rocket 4.0 20:52:32 10° N 20:55:07 16° NE 20:55:07 16° NE
GP-B 3.8 20:53:58 10° N 20:58:18 54° W 21:01:04 21° SSW
Nadezhda 3 Rocket 4.2 20:57:16 10° NNW 21:03:30 68° W 21:07:52 20° S
Meteor 2-21 4.3 21:06:16 69° ESE 21:06:31 70° E 21:12:37 10° NNE
Spot 2 Rocket 4.1 21:05:05 33° SSW 21:07:07 54° W 21:12:04 10° NNW
Cosmos 2285 Rocket 3.9 21:05:52 10° S 21:12:15 77° ESE 21:18:43 10° NNE
ISS -0.6 21:19:33 10° WSW 21:19:45 11° WSW 21:19:45 11° WSW
SL-8 Rocket 4.0 21:35:30 73° NW 21:35:30 73° NW 21:41:14 10° N
Cosmos 2369 4.3 21:36:48 10° NNW 21:41:12 54° NW 21:41:12 54° NW
H-2A R/B 4.3 21:59:17 16° N 21:59:17 16° N 22:00:23 10° N
BREEZE-M DEB (TANK) 4.5 21:50:23 10° WNW 22:02:50 43° N 22:02:50 43° N
ATLAS 2AS CENTAUR R/B 3.1 22:00:14 10° NW 22:07:04 67° NW 22:07:04 67° NW
Cosmos 1980 Rocket 4.4 22:35:10 10° NNW 22:36:53 21° NNW 22:36:53 21° NNW
